Regional Weather Roundup
Issued by NWS

Home | Current Version | Previous Version | Text Only | Print | Product List | Glossary Off
Versions: 1 2 3 4 5 6 7 8 9 10 11 12 13 14 15 16 17 18 19 20 21 22 23 24 25 26 27 28 29 30 31 32 33 34 35 36 37 38 39 40 41 42 43 44 45 46 47 48 49 50

000
ASUS45 KCYS 292110
RWRWY

WYOMING REGIONAL WEATHER ROUNDUP
NATIONAL WEATHER SERVICE CHEYENNE WY
300 PM MDT MON SEP 29 2014

NOTE:  "FAIR" INDICATES FEW OR NO CLOUDS BELOW 12,000 FEET
WITH NO SIGNIFICANT WEATHER AND/OR OBSTRUCTIONS TO VISIBILITY.

WYZ001-292200-
YELLOWSTONE NATIONAL PARK

CITY           SKY/WX    TMP DP  RH WIND       PRES   REMARKS
LK YELLOWSTONE   N/A     46  38  73 W8G18     30.00S
W YELLOWSTONE  NOT AVBL

$$
WYZ002>013-054>058-071-098>099-292200-
NORTHERN WYOMING

CITY           SKY/WX    TMP DP  RH WIND       PRES   REMARKS
JACKSON        CLOUDY    46  41  81 S16       30.00F
CODY           PTSUNNY   57  45  62 E7        29.88F
GREYBULL       PTSUNNY   64  46  52 S12       29.86F
WORLAND        MOSUNNY   62  46  55 CALM      29.87F
SHERIDAN       MOSUNNY   62  48  60 CALM      29.87F
BUFFALO        MOSUNNY   61  47  59 S20       29.90F
GILLETTE       SUNNY     65  49  56 SE16      29.89F
HULETT         FAIR      63  52  67 CALM      29.93
NEWCASTLE      CLOUDY    57  48  72 SE13      29.97

$$
WYZ014>020-022>026-101>103-292200-
CENTRAL WYOMING

CITY           SKY/WX    TMP DP  RH WIND       PRES   REMARKS
BIG PINEY      PTSUNNY   54  37  52 NW13G18   30.01F
PINEDALE       LGT RAIN  45  41  87 NW8       30.03S
DUBOIS         MOCLDY    46  36  66 N14       29.96F
LANDER         MOSUNNY   63  40  42 SE3       29.88F
RIVERTON       MOSUNNY   61  45  55 W7        29.90F
CASPER         PTSUNNY   63  42  46 SW12      29.92F
DOUGLAS        MOSUNNY   67  47  48 SE15G21   29.92F

$$
WYZ021-027>030-104>119-292200-
SOUTHERN WYOMING

CITY           SKY/WX    TMP DP  RH WIND       PRES   REMARKS
EVANSTON       PTSUNNY   54  35  48 W21       30.02F
KEMMERER       LGT RAIN  43  41  93 W9        30.03S
FORT BRIDGER   MOCLDY    57  38  48 W10G18    30.04S
ROCK SPRINGS   PTSUNNY   54  35  48 W13       29.99F
DIXON          FAIR      56  42  58 W10       30.03S
RAWLINS        CLOUDY    56  39  53 W20       29.98F
SARATOGA         N/A     55  37  50 W14       30.00F
LARAMIE        PTSUNNY   55  43  63 SE14      29.96F
CHEYENNE       CLOUDY    62  45  53 E13       29.94F
TORRINGTON     CLOUDY    63  53  70 E10       29.91F
PINE BLUFFS    MOCLDY    68  52  56 E14       29.92F

$$



USA.gov is the U.S. government's official web portal to all federal, state and local government web resources and services.